This is the latest recevied weather packets stored in our database for station/object LU1VZ-13. If no packets are shown the sender has not sent any weather packets the latest 10 day(s).
| Time | Temp. | Humidity | Pressure | Rain* | Wind** | Luminosity | Snow |
|---|---|---|---|---|---|---|---|
| 1778337874 | 12.78° C | 35% | 1028 hPa | - | - | - | - |
| 1778337274 | 12.78° C | 35% | 1028 hPa | - | - | - | - |
| 1778336673 | 12.78° C | 35% | 1028 hPa | - | - | - | - |
| 1778336074 | 12.78° C | 35% | 1028.2 hPa | - | - | - | - |
| 1778335473 | 12.78° C | 35% | 1028.5 hPa | - | - | - | - |
| 1778334274 | 12.78° C | 35% | 1028.6 hPa | - | - | - | - |
| 1778333674 | 12.22° C | 35% | 1028.8 hPa | - | - | - | - |
| 1778333074 | 12.22° C | 35% | 1029 hPa | - | - | - | - |
| 1778332473 | 12.22° C | 36% | 1029 hPa | - | - | - | - |
| 1778331874 | 12.22° C | 36% | 1029.2 hPa | - | - | - | - |
| 1778331273 | 12.22° C | 36% | 1029.2 hPa | - | - | - | - |
| 1778330674 | 11.67° C | 37% | 1029.2 hPa | - | - | - | - |
| 1778330074 | 11.67° C | 37% | 1029.5 hPa | - | - | - | - |
| 1778329474 | 11.11° C | 38% | 1029.3 hPa | - | - | - | - |
| 1778328874 | 11.11° C | 38% | 1029.1 hPa | - | - | - | - |
| 1778328274 | 11.11° C | 39% | 1029 hPa | - | - | - | - |
| 1778327674 | 10.56° C | 39% | 1029.2 hPa | - | - | - | - |
| 1778327073 | 10.56° C | 40% | 1029.7 hPa | - | - | - | - |
| 1778326474 | 10.56° C | 40% | 1029.3 hPa | - | - | - | - |
| 1778325874 | 10.56° C | 40% | 1029.4 hPa | - | - | - | - |
| 1778325273 | 10.56° C | 39% | 1029.3 hPa | - | - | - | - |
| 1778324674 | 10.56° C | 40% | 1029.4 hPa | - | - | - | - |
| 1778324073 | 11.11° C | 40% | 1029.6 hPa | - | - | - | - |
| 1778323474 | 11.11° C | 39% | 1029.7 hPa | - | - | - | - |
| 1778322874 | 11.11° C | 39% | 1029.6 hPa | - | - | - | - |
* Rain since midnight (hover to see other rain measurements)
** Current wind speed in m/s (hover to see current wind gust speed)